Погода в Сан-Кристобаль

Доминиканская Республика     18°24′58″N   70°06′28″W
темп.,
°C
ветер,
м/с
пор.,
м/с
влажн.,
%
обл.,
%
осадки,
мм/ч
давл.,
гПа
погр.,
м
18 мая, вт
вт1823:00+23юз12864 0.0 1017126
02:00+22сз128936 0.0 1016149
05:00+21ссз129374 0.0 101659
08:00+24с118190 0.1 1017233
11:00+30юв345592 0.1 10171475
14:00+31ююв5446100 0.1 10151274
17:00+29ююв555896 0.0 1013933
20:00+25ююв237815 0.0 1015240
19 мая, ср
ср1923:00+24зюз028577 0.0 1017132
02:00+24зюз028577 0.2 1015163
05:00+24в128428 0.1 1015165
08:00+25в237991 0.1 1016413
11:00+30ююв445484 0.1 10161366
14:00+31ююв555423 0.1 10141222
17:00+29ююв566435 0.0 1013896
20:00+24ююв238849 1.2 101592
20 мая, чт
чт2023:00+23с2291100 4.2 101790
02:00+22с248991 5.4 1016123
05:00+22ссз239095 0.1 101593
08:00+24с117761 0.1 1016218
11:00+29всв245653 0.0 10161291
14:00+26всв237797 2.8 1015409
17:00+25с3481100 1.6 1015290
20:00+22ссз4791100 2.1 1017240
21 мая, пт
пт2123:00+22ссз3791100 0.7 1018245
02:00+22ссз3591100 0.8 1016141
05:00+21с249188 0.0 1016120
08:00+24с247994 0.0 1017281
11:00+28ссв346497 0.0 1018901
14:00+30вюв345577 0.4 10161406
17:00+27юв3471100 0.8 1015554
20:00+24с238888 2.6 101685
22 мая, сб
сб2223:00+22с249499 0.1 1018101
02:00+22ссз2292100 0.1 101679
05:00+22ссз229272 0.0 101677
08:00+24с238488 0.0 1017279
11:00+29в236086 0.1 10171215
14:00+30юв445887 0.3 10151187
17:00+28ююв4463100 0.0 1014751
20:00+25юв1284100 0.3 101683